Location: Igon
(43.1667°N, 0.2333°W)
Time: 14:51:08
(UTC+00:00)

Meteor 1-31 Rocket - Pass Details

Date: 29 November 2020
Orbit: 520 x 546 km, 97.6° (Epoch: 24 January)

Event Time Altitude Azimuth Distance (km) Brightness Sun altitude
Rises 05:36:39 0° 1° (N) 2,689 6.2 -16.8°
Reaches altitude 10° 05:38:58 10° 350° (N) 1,788 5.2 -16.4°
Enters shadow 05:40:21 19° 336° (NNW) 1,329 4.4 -16.1°
Exits shadow 05:47:55 - 219° (SW) 2,665 6.1 -14.8°
